Snowfall_Accumulation
0.0 0.0 0.0 0.0 0.0 0.0 0.0 0.0 7.1 0.0 0.0 1.4 6.7 7.8 0.4 0.0 0.0 0.0 0.8 0.0 0.0 1.3 1.2 5.8 5.8 7.5 7.3 2.1 0.0 1.3 1.4 3.0 7.9 5.0 0.0 0.1 3.6 4.1 2.9 13.5 7.8 9.6 9.2 16.3
0.0 0.0 0.0 0.0 0.0 0.0 0.0 0.0 4.4 0.0 0.0 14.1 5.4 0.0 0.3 0.0 3.2 1.2 0.0 1.0 0.0 0.0 1.4 2.8 2.4 2.8 3.0 0.0 0.9 0.6 1.0 1.5 5.7 5.9 0.4 0.0 2.7 2.5 1.2 3.3 8.1 9.9 15.5 20.8
0.0 0.0 0.0 0.0 0.0 0.0 0.0 0.0 15.0 0.0 0.0 0.0 0.1 0.8 2.9 2.5 0.0 0.0 0.0 0.0 0.0 0.0 1.2 0.0 0.3 1.2 2.1 0.0 0.0 0.0 0.0 0.3 5.0 5.6 4.8 5.4 6.0 3.4 1.7 8.5 12.7 8.4 14.3 12.8
0.0 0.0 0.0 0.0 0.0 0.0 0.0 0.0 6.3 0.0 7.5 2.8 0.4 2.6 2.4 3.5 5.9 0.0 0.0 2.2 0.0 1.4 2.0 0.5 0.6 0.5 1.7 2.7 3.1 3.2 1.5 1.7 0.0 2.7 1.0 0.2 6.1 5.1 4.6 9.6 4.6 10.5 7.8 7.6
0.0 0.0 0.0 0.0 0.0 0.0 0.0 2.6 2.4 0.0 0.0 0.0 0.0 0.0 2.9 4.2 0.0 0.2 0.0 0.1 0.0 0.0 1.6 0.1 0.4 0.9 1.1 2.2 1.9 4.1 3.1 2.2 0.0 3.8 0.0 3.3 5.0 1.0 2.3 1.6 1.6 3.5 0.7 3.9
0.0 0.0 0.0 0.0 0.0 0.0 0.0 0.0 0.0 0.0 0.0 0.0 0.0 1.0 1.0 0.0 0.2 0.0 0.0 0.0 0.0 0.0 0.0 0.0 0.0 0.0 0.0 0.9 1.8 1.3 1.6 0.1 1.7 7.1 1.4 2.7 3.9 2.0 0.2 0.2 0.0 0.4 0.8 0.9
0.0 0.0 0.0 0.0 0.0 0.0 0.0 0.0 0.0 1.0 0.8 0.1 0.4 0.9 0.1 0.0 0.1 0.3 0.0 0.0 0.1 0.0 0.0 0.0 0.0 0.0 0.0 0.0 0.0 0.0 0.0 0.4 0.6 4.8 1.9 4.6 0.4 0.0 0.0 0.0 0.9 0.0 0.0 0.0
0.0 0.0 0.0 0.0 0.0 0.0 0.0 0.0 0.0 0.1 0.3 0.0 0.1 0.3 0.2 0.0 0.0 0.3 0.0 0.0 0.0 0.0 0.0 0.0 0.5 0.5 0.3 0.1 0.0 0.2 0.0 0.1 1.6 3.5 4.1 0.2 0.0 0.0 0.0 0.0 0.2 0.0 0.0 0.0
0.0 0.0 0.0 0.0 0.0 0.0 0.0 0.0 0.0 0.0 0.2 0.0 0.0 0.0 0.0 0.5 0.1 0.4 0.0 0.0 0.0 0.0 0.0 1.6 1.9 1.8 0.0 0.3 0.1 0.0 0.0 0.0 2.1 1.5 2.1 0.7 0.0 0.0 0.0 0.0 0.0 0.0 0.0 0.0
0.0 0.0 0.0 0.0 0.0 0.0 0.0 0.0 0.0 0.0 0.9 0.0 0.0 0.0 0.2 0.0 0.2 0.2 0.0 0.0 0.0 0.0 1.8 1.4 0.1 0.2 0.0 0.2 0.1 0.2 0.7 1.1 1.6 1.1 2.1 0.0 0.0 0.0 0.0 0.2 0.4 0.0 0.0 0.0
0.0 0.0 0.0 0.0 0.0 0.0 0.0 0.0 0.0 0.0 0.3 0.0 0.0 0.0 0.0 0.0 0.4 0.5 0.3 0.0 0.0 0.0 2.4 1.2 0.0 0.0 0.0 0.0 0.0 0.0 0.0 0.1 0.3 0.2 0.3 0.1 0.0 0.0 0.0 0.0 0.0 0.0 0.0 0.0
0.0 0.0 0.0 0.0 0.0 0.0 0.0 0.0 0.0 0.0 0.0 0.0 0.0 0.0 0.0 0.0 0.0 0.0 0.0 0.4 1.3 1.1 0.5 0.0 0.0 0.0 0.0 0.0 0.2 0.0 0.1 0.0 0.0 0.0 0.0 0.0 0.0 0.0 0.0 0.0 0.0 0.0 0.0 0.0
0.0 0.0 0.0 0.0 0.0 0.0 0.0 0.0 0.0 0.0 0.0 0.0 0.0 0.0 0.0 0.0 0.0 0.0 0.0 0.0 0.0 1.3 0.7 0.5 0.1 0.1 0.0 0.1 0.0 0.0 0.0 0.0 0.0 0.0 0.0 0.0 0.0 0.0 0.0 0.0 0.0 0.0 0.0 0.0
0.0 0.0 0.0 0.0 0.0 0.0 0.0 0.0 0.0 0.0 0.1 1.0 0.0 0.0 0.0 0.0 0.0 0.0 0.0 0.0 0.0 0.0 0.0 0.3 0.3 0.3 0.0 0.0 0.0 0.0 0.0 0.0 0.0 0.0 0.0 0.0 0.0 0.0 0.0 0.0 0.0 0.0 0.0 0.0
0.0 0.0 0.0 0.0 0.0 0.0 0.0 0.0 0.0 0.0 0.0 1.8 0.0 0.0 0.0 0.0 0.0 0.0 0.0 0.0 0.0 0.1 0.1 0.0 0.1 0.0 0.0 0.0 0.0 0.0 0.0 0.0 0.0 0.0 0.0 0.0 0.0 0.0 0.0 0.0 0.0 0.0 0.0 0.0
0.0 0.0 0.0 0.0 0.0 0.0 0.0 0.3 0.0 0.0 0.0 3.5 1.1 0.0 0.0 0.0 0.0 0.0 0.0 0.0 0.0 0.0 0.1 0.0 0.0 0.0 0.0 0.4 0.0 0.0 0.0 0.0 0.0 0.0 0.0 0.0 0.0 0.0 0.0 0.0 0.0 0.0 0.0 0.0
0.0 0.0 0.0 0.0 0.0 0.0 1.3 0.6 0.0 0.0 0.0 2.6 2.2 0.5 0.0 0.0 0.0 0.0 0.0 0.0 0.0 0.0 0.2 0.1 0.0 0.0 0.0 0.2 0.0 0.0 0.0 0.0 0.0 0.0 0.0 0.0 0.0 0.0 0.0 0.0 0.0 0.0 0.5 0.3
0.0 0.0 0.0 0.0 0.0 0.0 0.0 0.0 0.0 0.0 0.0 1.5 4.1 1.4 0.2 0.0 0.5 0.1 0.0 0.0 0.0 0.0 0.0 0.0 0.1 0.0 0.0 2.2 0.0 0.0 0.0 0.0 0.0 0.0 0.0 0.0 0.0 0.0 0.0 0.0 0.8 0.9 0.4 0.1
0.0 0.0 0.0 0.0 0.0 0.0 0.0 0.0 0.0 0.0 0.0 5.5 4.4 2.2 2.3 0.0 0.0 0.0 0.1 0.0 3.3 0.0 0.3 0.0 0.2 0.0 1.3 0.1 0.0 0.0 0.0 0.0 0.0 0.0 0.0 0.0 0.0 0.0 0.0 1.1 0.8 0.3 0.0 0.0
0.0 0.0 0.0 4.5 0.0 0.0 0.0 0.0 4.1 7.1 2.7 1.7 3.7 0.0 2.3 0.0 1.6 0.4 2.7 0.6 2.8 5.3 0.0 0.0 1.4 0.8 0.0 0.0 0.0 0.0 0.0 0.0 0.0 0.0 0.0 0.0 0.0 0.0 0.0 0.0 0.0 0.0 0.0 0.0
0.0 4.2 5.4 0.0 0.0 0.0 1.0 10.9 10.5 5.0 4.6 2.2 1.6 0.7 2.5 0.0 4.9 5.5 0.1 7.9 4.4 5.1 3.3 5.9 4.4 3.0 0.8 0.0 0.0 0.0 0.0 0.0 0.0 0.0 0.0 0.0 0.0 0.0 0.0 0.0 0.0 0.0 0.0 0.0
0.0 0.0 0.0 0.0 10.7 16.2 14.7 10.0 5.2 4.4 1.0 1.6 2.7 2.1 1.2 0.8 0.0 5.3 2.2 6.3 7.9 3.8 0.8 6.1 3.4 1.2 0.0 0.1 0.0 0.0 0.0 0.0 0.0 0.0 0.0 0.0 0.0 0.0 0.0 0.0 0.0 0.0 0.0 0.0
0.0 7.0 26.9 21.8 20.2 16.5 9.6 5.4 6.2 5.3 3.1 2.9 2.4 3.4 0.5 0.2 0.6 3.9 7.0 8.9 4.8 1.0 4.4 1.5 0.6 0.2 0.0 0.0 0.2 0.2 0.0 0.0 0.0 0.0 0.0 0.0 0.0 0.0 0.0 0.0 0.0 0.0 0.0 0.0
8.4 50.9 39.9 17.6 11.4 1.6 3.1 3.3 3.7 3.8 4.6 4.3 3.5 5.3 4.2 2.0 6.7 5.3 6.6 2.9 5.2 4.2 1.7 0.8 0.6 0.2 0.1 0.2 0.2 0.6 0.8 2.1 2.1 1.1 0.7 0.5 0.5 0.3 0.2 0.2 0.2 0.0 0.1 0.0
50.0 35.9 18.5 5.3 0.2 0.6 1.6 1.6 1.4 2.4 2.9 3.4 4.2 6.0 5.9 7.3 10.3 7.7 5.2 7.0 3.1 1.2 0.7 1.6 1.5 1.1 0.6 1.1 1.6 1.3 1.6 3.1 4.2 4.7 4.2 4.0 3.4 2.6 2.1 1.2 0.8 0.6 0.2 0.1
44.1 28.6 8.7 0.4 0.1 0.2 0.6 1.8 1.8 1.4 3.6 2.6 4.3 7.1 9.6 8.9 7.9 7.8 4.1 4.9 3.3 2.6 3.4 3.6 2.7 2.9 2.6 2.2 1.7 1.3 0.8 0.8 0.6 0.3 0.4 0.9 0.5 1.1 1.9 1.3 1.3 1.5 1.5 1.4
38.4 12.2 0.9 0.1 0.0 0.5 0.7 0.9 1.7 0.8 3.2 5.3 6.7 9.9 6.1 7.8 9.9 6.9 5.4 5.9 4.0 1.7 0.7 1.7 2.3 3.0 3.5 3.4 2.9 2.3 1.1 1.3 0.7 0.4 0.4 0.4 0.3 0.1 0.5 0.3 0.1 0.2 1.5 1.8